contact:dominique.lefevre@mio.osupytheas.fr, maurice.libes@osupytheas.fr, didier.mallarino@osupytheas.fr
Project:EMSO http://www.emso-fr.org/EMSO-France
Depth: 2436.0 m
Title:EMSO Ligure Ouest : Data MII capteur MICROCAT
DateTime_Computer,Latitude,Longitude,Temperature,Conductivity,Pressure,DateTime_Instrument
DateTime_Computer,Latitude,Longitude,degC,S m-1,dbar,DateTime_Instrument
2019-12-02T00:01:02Z,42.805,6.029,13.2980,4.59991,2470.053,2019-12-02T02:01:31Z
2019-12-02T00:04:05Z,42.805,6.029,13.2992,4.59998,2470.053,2019-12-02T02:04:34Z
2019-12-02T00:07:08Z,42.805,6.029,13.2984,4.60005,2470.017,2019-12-02T02:07:37Z
2019-12-02T00:10:12Z,42.805,6.029,13.2979,4.59997,2470.017,2019-12-02T02:10:41Z
2019-12-02T00:13:15Z,42.805,6.029,13.2996,4.60016,2470.04,2019-12-02T02:13:44Z
2019-12-02T00:16:18Z,42.805,6.029,13.2982,4.59989,2470.053,2019-12-02T02:16:47Z
2019-12-02T00:19:21Z,42.805,6.029,13.2982,4.59994,2470.053,2019-12-02T02:19:50Z
2019-12-02T00:22:24Z,42.805,6.029,13.2988,4.59999,2470.04,2019-12-02T02:22:53Z
2019-12-02T00:25:28Z,42.805,6.029,13.2990,4.59988,2470.03,2019-12-02T02:25:57Z
2019-12-02T00:28:31Z,42.805,6.029,13.2980,4.60001,2470.053,2019-12-02T02:29:00Z
2019-12-02T00:31:34Z,42.805,6.029,13.2986,4.60001,2470.017,2019-12-02T02:32:03Z
2019-12-02T00:34:37Z,42.805,6.029,13.2986,4.59992,2470.017,2019-12-02T02:35:06Z
2019-12-02T00:37:40Z,42.805,6.029,13.2982,4.59998,2470.007,2019-12-02T02:38:09Z
2019-12-02T00:40:43Z,42.805,6.029,13.2984,4.59987,2470.03,2019-12-02T02:41:12Z
2019-12-02T00:43:47Z,42.805,6.029,13.2983,4.59986,2469.993,2019-12-02T02:44:16Z
2019-12-02T00:46:50Z,42.805,6.029,13.2978,4.60010,2470.03,2019-12-02T02:47:19Z
2019-12-02T00:49:53Z,42.805,6.029,13.2990,4.59978,2470.03,2019-12-02T02:50:22Z
2019-12-02T00:52:56Z,42.805,6.029,13.2985,4.59993,2470.03,2019-12-02T02:53:25Z
2019-12-02T00:55:59Z,42.805,6.029,13.2983,4.59994,2470.017,2019-12-02T02:56:28Z
2019-12-02T00:59:03Z,42.805,6.029,13.2976,4.59995,2470.03,2019-12-02T02:59:32Z
2019-12-02T01:02:06Z,42.805,6.029,13.2984,4.59987,2470.017,2019-12-02T03:02:35Z
2019-12-02T01:05:09Z,42.805,6.029,13.2986,4.59990,2470.007,2019-12-02T03:05:38Z
2019-12-02T01:08:12Z,42.805,6.029,13.2998,4.60000,2470.007,2019-12-02T03:08:41Z
2019-12-02T01:11:15Z,42.805,6.029,13.2981,4.59995,2470.053,2019-12-02T03:11:44Z
2019-12-02T01:14:19Z,42.805,6.029,13.2999,4.59988,2469.993,2019-12-02T03:14:48Z
2019-12-02T01:17:22Z,42.805,6.029,13.2980,4.59977,2470.007,2019-12-02T03:17:51Z
2019-12-02T01:20:25Z,42.805,6.029,13.2986,4.59990,2469.993,2019-12-02T03:20:54Z
2019-12-02T01:23:28Z,42.805,6.029,13.2986,4.59988,2469.993,2019-12-02T03:23:57Z
2019-12-02T01:26:31Z,42.805,6.029,13.2983,4.59991,2470.03,2019-12-02T03:27:00Z
2019-12-02T01:29:35Z,42.805,6.029,13.2982,4.59990,2469.979,2019-12-02T03:30:04Z
2019-12-02T01:32:38Z,42.805,6.029,13.2982,4.59991,2470.007,2019-12-02T03:33:07Z
2019-12-02T01:35:41Z,42.805,6.029,13.2977,4.59991,2470.007,2019-12-02T03:36:10Z
2019-12-02T01:38:44Z,42.805,6.029,13.2983,4.59980,2470.017,2019-12-02T03:39:13Z
2019-12-02T01:41:47Z,42.805,6.029,13.2984,4.59987,2469.993,2019-12-02T03:42:17Z
2019-12-02T01:44:51Z,42.805,6.029,13.2990,4.59998,2469.984,2019-12-02T03:45:20Z
2019-12-02T01:47:54Z,42.805,6.029,13.2988,4.59984,2470.03,2019-12-02T03:48:23Z
2019-12-02T01:50:57Z,42.805,6.029,13.2985,4.59981,2469.993,2019-12-02T03:51:26Z
2019-12-02T01:54:00Z,42.805,6.029,13.2980,4.59976,2469.97,2019-12-02T03:54:29Z
2019-12-02T01:57:03Z,42.805,6.029,13.2983,4.59984,2470.007,2019-12-02T03:57:32Z
2019-12-02T02:00:07Z,42.805,6.029,13.2986,4.59990,2469.993,2019-12-02T04:00:36Z
2019-12-02T02:03:10Z,42.805,6.029,13.2995,4.59992,2469.993,2019-12-02T04:03:39Z
2019-12-02T02:06:13Z,42.805,6.029,13.2982,4.59989,2469.984,2019-12-02T04:06:42Z
2019-12-02T02:09:16Z,42.805,6.029,13.2992,4.59988,2469.97,2019-12-02T04:09:45Z
2019-12-02T02:12:19Z,42.805,6.029,13.2985,4.59983,2469.97,2019-12-02T04:12:48Z
2019-12-02T02:15:22Z,42.805,6.029,13.2990,4.59982,2469.993,2019-12-02T04:15:51Z
2019-12-02T02:18:26Z,42.805,6.029,13.2991,4.59984,2469.984,2019-12-02T04:18:55Z
2019-12-02T02:21:29Z,42.805,6.029,13.2987,4.59983,2469.947,2019-12-02T04:21:58Z
2019-12-02T02:24:32Z,42.805,6.029,13.2986,4.59983,2469.97,2019-12-02T04:25:01Z
2019-12-02T02:27:35Z,42.805,6.029,13.2991,4.59991,2469.97,2019-12-02T04:28:04Z
2019-12-02T02:30:38Z,42.805,6.029,13.2983,4.59994,2469.984,2019-12-02T04:31:07Z
2019-12-02T02:33:42Z,42.805,6.029,13.2987,4.59989,2469.984,2019-12-02T04:34:11Z
2019-12-02T02:36:45Z,42.805,6.029,13.2991,4.59991,2469.97,2019-12-02T04:37:14Z
2019-12-02T02:39:48Z,42.805,6.029,13.2987,4.59992,2469.96,2019-12-02T04:40:17Z
2019-12-02T02:42:51Z,42.805,6.029,13.2990,4.59981,2469.984,2019-12-02T04:43:20Z
2019-12-02T02:45:55Z,42.805,6.029,13.2998,4.59996,2469.97,2019-12-02T04:46:24Z
2019-12-02T02:48:58Z,42.805,6.029,13.2993,4.59990,2469.97,2019-12-02T04:49:27Z
2019-12-02T02:52:01Z,42.805,6.029,13.2992,4.59982,2470.03,2019-12-02T04:52:30Z
2019-12-02T02:55:04Z,42.805,6.029,13.2985,4.59983,2469.993,2019-12-02T04:55:33Z
2019-12-02T02:58:07Z,42.805,6.029,13.2987,4.59983,2469.984,2019-12-02T04:58:36Z
2019-12-02T03:01:10Z,42.805,6.029,13.2993,4.59983,2469.993,2019-12-02T05:01:40Z
2019-12-02T03:04:14Z,42.805,6.029,13.2993,4.59983,2469.993,2019-12-02T05:04:43Z
2019-12-02T03:07:17Z,42.805,6.029,13.2989,4.59993,2469.97,2019-12-02T05:07:46Z
2019-12-02T03:10:20Z,42.805,6.029,13.2988,4.59997,2469.993,2019-12-02T05:10:49Z
2019-12-02T03:13:23Z,42.805,6.029,13.2991,4.59986,2469.984,2019-12-02T05:13:52Z
2019-12-02T03:16:26Z,42.805,6.029,13.2993,4.59991,2470.007,2019-12-02T05:16:56Z
2019-12-02T03:19:30Z,42.805,6.029,13.2997,4.59991,2470.007,2019-12-02T05:19:59Z
2019-12-02T03:22:33Z,42.805,6.029,13.2994,4.59999,2469.993,2019-12-02T05:23:02Z
2019-12-02T03:25:36Z,42.805,6.029,13.2993,4.59990,2469.96,2019-12-02T05:26:05Z
2019-12-02T03:28:39Z,42.805,6.029,13.2993,4.59991,2470.007,2019-12-02T05:29:08Z
2019-12-02T03:31:42Z,42.805,6.029,13.2992,4.59992,2469.993,2019-12-02T05:32:11Z
2019-12-02T03:34:46Z,42.805,6.029,13.2990,4.59990,2469.947,2019-12-02T05:35:15Z
2019-12-02T03:37:49Z,42.805,6.029,13.2990,4.59986,2469.984,2019-12-02T05:38:18Z
2019-12-02T03:40:52Z,42.805,6.029,13.2991,4.59991,2470.017,2019-12-02T05:41:21Z
2019-12-02T03:43:55Z,42.805,6.029,13.2992,4.59985,2469.97,2019-12-02T05:44:24Z
2019-12-02T03:46:58Z,42.805,6.029,13.2993,4.59993,2469.984,2019-12-02T05:47:27Z
2019-12-02T03:50:02Z,42.805,6.029,13.2995,4.59994,2469.947,2019-12-02T05:50:31Z
2019-12-02T03:53:05Z,42.805,6.029,13.2993,4.59991,2469.947,2019-12-02T05:53:34Z
2019-12-02T03:56:08Z,42.805,6.029,13.2996,4.59991,2469.947,2019-12-02T05:56:37Z
2019-12-02T03:59:11Z,42.805,6.029,13.3000,4.59986,2469.96,2019-12-02T05:59:40Z
2019-12-02T04:02:14Z,42.805,6.029,13.2990,4.59979,2469.97,2019-12-02T06:02:43Z
2019-12-02T04:05:18Z,42.805,6.029,13.2985,4.59986,2469.947,2019-12-02T06:05:47Z
2019-12-02T04:08:21Z,42.805,6.029,13.2990,4.59988,2469.933,2019-12-02T06:08:50Z
2019-12-02T04:11:24Z,42.805,6.029,13.2993,4.59984,2469.947,2019-12-02T06:11:53Z
2019-12-02T04:14:27Z,42.805,6.029,13.2990,4.59980,2469.993,2019-12-02T06:14:56Z
2019-12-02T04:17:30Z,42.805,6.029,13.2981,4.59994,2469.96,2019-12-02T06:17:59Z
2019-12-02T04:20:34Z,42.805,6.029,13.2998,4.59998,2469.96,2019-12-02T06:21:03Z
2019-12-02T04:23:37Z,42.805,6.029,13.2982,4.59987,2469.96,2019-12-02T06:24:06Z
2019-12-02T04:26:40Z,42.805,6.029,13.2991,4.59990,2470.007,2019-12-02T06:27:09Z
2019-12-02T04:29:43Z,42.805,6.029,13.2990,4.59996,2469.97,2019-12-02T06:30:12Z
2019-12-02T04:32:46Z,42.805,6.029,13.2984,4.59991,2469.96,2019-12-02T06:33:15Z
2019-12-02T04:35:49Z,42.805,6.029,13.2986,4.59994,2469.947,2019-12-02T06:36:19Z
2019-12-02T04:38:53Z,42.805,6.029,13.2991,4.60030,2469.97,2019-12-02T06:39:22Z
2019-12-02T04:41:56Z,42.805,6.029,13.2989,4.59987,2469.984,2019-12-02T06:42:25Z
2019-12-02T04:44:59Z,42.805,6.029,13.2983,4.59983,2469.937,2019-12-02T06:45:28Z
2019-12-02T04:48:02Z,42.805,6.029,13.2991,4.59986,2469.97,2019-12-02T06:48:31Z
2019-12-02T04:51:05Z,42.805,6.029,13.2989,4.59990,2469.97,2019-12-02T06:51:34Z
2019-12-02T04:54:09Z,42.805,6.029,13.2983,4.59991,2469.947,2019-12-02T06:54:38Z
2019-12-02T04:57:12Z,42.805,6.029,13.2993,4.59988,2469.923,2019-12-02T06:57:41Z
2019-12-02T05:00:15Z,42.805,6.029,13.2984,4.59993,2469.97,2019-12-02T07:00:44Z
2019-12-02T05:03:18Z,42.805,6.029,13.2988,4.59991,2469.993,2019-12-02T07:03:47Z
2019-12-02T05:06:21Z,42.805,6.029,13.2986,4.60000,2469.97,2019-12-02T07:06:50Z
2019-12-02T05:09:24Z,42.805,6.029,13.2986,4.59983,2469.947,2019-12-02T07:09:53Z
2019-12-02T05:12:28Z,42.805,6.029,13.2991,4.59994,2469.97,2019-12-02T07:12:57Z
2019-12-02T05:15:31Z,42.805,6.029,13.3005,4.59978,2469.96,2019-12-02T07:16:00Z
2019-12-02T05:18:34Z,42.805,6.029,13.2980,4.59999,2469.947,2019-12-02T07:19:03Z
2019-12-02T05:21:37Z,42.805,6.029,13.2983,4.59987,2469.96,2019-12-02T07:22:06Z
2019-12-02T05:24:40Z,42.805,6.029,13.2984,4.59996,2469.947,2019-12-02T07:25:09Z
2019-12-02T05:27:43Z,42.805,6.029,13.2985,4.59993,2469.96,2019-12-02T07:28:13Z
2019-12-02T05:30:47Z,42.805,6.029,13.2988,4.59986,2469.984,2019-12-02T07:31:16Z
2019-12-02T05:33:50Z,42.805,6.029,13.2987,4.59982,2469.97,2019-12-02T07:34:19Z
2019-12-02T05:36:53Z,42.805,6.029,13.2983,4.59997,2470.007,2019-12-02T07:37:22Z
2019-12-02T05:39:56Z,42.805,6.029,13.2983,4.59997,2469.984,2019-12-02T07:40:25Z
2019-12-02T05:42:59Z,42.805,6.029,13.2997,4.59990,2469.97,2019-12-02T07:43:29Z
2019-12-02T05:46:03Z,42.805,6.029,13.2988,4.59982,2469.993,2019-12-02T07:46:32Z
2019-12-02T05:49:06Z,42.805,6.029,13.2986,4.59993,2469.984,2019-12-02T07:49:35Z
2019-12-02T05:52:09Z,42.805,6.029,13.2982,4.59986,2469.984,2019-12-02T07:52:38Z
2019-12-02T05:55:12Z,42.805,6.029,13.2987,4.59996,2469.993,2019-12-02T07:55:41Z
2019-12-02T05:58:15Z,42.805,6.029,13.2985,4.59989,2469.984,2019-12-02T07:58:44Z
2019-12-02T06:01:19Z,42.805,6.029,13.2983,4.59994,2469.97,2019-12-02T08:01:48Z
2019-12-02T06:04:22Z,42.805,6.029,13.2986,4.59986,2469.96,2019-12-02T08:04:51Z
2019-12-02T06:07:25Z,42.805,6.029,13.2985,4.59981,2469.97,2019-12-02T08:07:54Z
2019-12-02T06:10:28Z,42.805,6.029,13.2982,4.59979,2469.97,2019-12-02T08:10:57Z
2019-12-02T06:13:32Z,42.805,6.029,13.2979,4.59977,2470.007,2019-12-02T08:14:01Z
2019-12-02T06:16:35Z,42.805,6.029,13.2986,4.59991,2469.993,2019-12-02T08:17:04Z
2019-12-02T06:19:38Z,42.805,6.029,13.2988,4.60003,2470.007,2019-12-02T08:20:07Z
2019-12-02T06:22:41Z,42.805,6.029,13.2983,4.59989,2469.97,2019-12-02T08:23:10Z
2019-12-02T06:25:44Z,42.805,6.029,13.2993,4.59991,2469.984,2019-12-02T08:26:13Z
2019-12-02T06:28:47Z,42.805,6.029,13.2984,4.59988,2470.017,2019-12-02T08:29:16Z
2019-12-02T06:31:51Z,42.805,6.029,13.2986,4.59997,2470.017,2019-12-02T08:32:20Z
2019-12-02T06:34:54Z,42.805,6.029,13.2998,4.59997,2470.017,2019-12-02T08:35:23Z
2019-12-02T06:37:57Z,42.805,6.029,13.2978,4.59997,2470.007,2019-12-02T08:38:26Z
2019-12-02T06:41:00Z,42.805,6.029,13.2983,4.59983,2469.993,2019-12-02T08:41:29Z
2019-12-02T06:44:03Z,42.805,6.029,13.2988,4.59993,2470.007,2019-12-02T08:44:32Z
2019-12-02T06:47:07Z,42.805,6.029,13.2985,4.60002,2469.993,2019-12-02T08:47:36Z
2019-12-02T06:50:10Z,42.805,6.029,13.2982,4.59980,2469.993,2019-12-02T08:50:39Z
2019-12-02T06:53:13Z,42.805,6.029,13.2982,4.59994,2470.007,2019-12-02T08:53:42Z
2019-12-02T06:56:16Z,42.805,6.029,13.2993,4.59981,2470.017,2019-12-02T08:56:45Z
2019-12-02T06:59:19Z,42.805,6.029,13.2979,4.59996,2470.017,2019-12-02T08:59:48Z
2019-12-02T07:02:23Z,42.805,6.029,13.2986,4.59990,2470.017,2019-12-02T09:02:52Z
2019-12-02T07:05:26Z,42.805,6.029,13.2991,4.59978,2470.053,2019-12-02T09:05:55Z
2019-12-02T07:08:29Z,42.805,6.029,13.2986,4.59987,2470.04,2019-12-02T09:08:58Z
2019-12-02T07:11:32Z,42.805,6.029,13.2985,4.59986,2470.04,2019-12-02T09:12:01Z
2019-12-02T07:14:35Z,42.805,6.029,13.2981,4.59986,2470.04,2019-12-02T09:15:04Z
2019-12-02T07:17:38Z,42.805,6.029,13.2991,4.59983,2470.04,2019-12-02T09:18:08Z
2019-12-02T07:20:42Z,42.805,6.029,13.2993,4.60000,2470.053,2019-12-02T09:21:11Z
2019-12-02T07:23:45Z,42.805,6.029,13.2987,4.59993,2470.017,2019-12-02T09:24:14Z
2019-12-02T07:26:48Z,42.805,6.029,13.2979,4.60001,2470.03,2019-12-02T09:27:17Z
2019-12-02T07:29:51Z,42.805,6.029,13.2989,4.59995,2470.03,2019-12-02T09:30:20Z
2019-12-02T07:32:54Z,42.805,6.029,13.3004,4.59988,2470.04,2019-12-02T09:33:24Z
2019-12-02T07:35:58Z,42.805,6.029,13.2988,4.59979,2470.04,2019-12-02T09:36:27Z
2019-12-02T07:39:01Z,42.805,6.029,13.2990,4.60001,2470.077,2019-12-02T09:39:30Z
2019-12-02T07:42:04Z,42.805,6.029,13.2996,4.59983,2470.03,2019-12-02T09:42:33Z
2019-12-02T07:45:07Z,42.805,6.029,13.2985,4.59991,2470.077,2019-12-02T09:45:36Z
2019-12-02T07:48:11Z,42.805,6.029,13.2986,4.60003,2470.04,2019-12-02T09:48:40Z
2019-12-02T07:51:14Z,42.805,6.029,13.2995,4.59978,2470.053,2019-12-02T09:51:43Z
2019-12-02T07:54:17Z,42.805,6.029,13.2982,4.59987,2470.077,2019-12-02T09:54:46Z
2019-12-02T07:57:20Z,42.805,6.029,13.2987,4.59988,2470.077,2019-12-02T09:57:49Z
2019-12-02T08:00:23Z,42.805,6.029,13.2986,4.59988,2470.077,2019-12-02T10:00:52Z
2019-12-02T08:03:26Z,42.805,6.029,13.2991,4.59999,2470.087,2019-12-02T10:03:56Z
2019-12-02T08:06:30Z,42.805,6.029,13.2980,4.59992,2470.04,2019-12-02T10:06:59Z
2019-12-02T08:09:33Z,42.805,6.029,13.2986,4.59988,2470.063,2019-12-02T10:10:02Z
2019-12-02T08:12:36Z,42.805,6.029,13.2982,4.59991,2470.077,2019-12-02T10:13:05Z
2019-12-02T08:15:39Z,42.805,6.029,13.2990,4.59980,2470.1,2019-12-02T10:16:08Z
2019-12-02T08:18:42Z,42.805,6.029,13.2993,4.59997,2470.077,2019-12-02T10:19:11Z
2019-12-02T08:21:46Z,42.805,6.029,13.2988,4.59996,2470.063,2019-12-02T10:22:15Z
2019-12-02T08:24:49Z,42.805,6.029,13.2981,4.59983,2470.063,2019-12-02T10:25:18Z
2019-12-02T08:27:52Z,42.805,6.029,13.2987,4.59978,2470.1,2019-12-02T10:28:21Z
2019-12-02T08:30:55Z,42.805,6.029,13.2985,4.59982,2470.087,2019-12-02T10:31:24Z
2019-12-02T08:33:58Z,42.805,6.029,13.2976,4.59986,2470.11,2019-12-02T10:34:27Z
2019-12-02T08:37:02Z,42.805,6.029,13.2982,4.59983,2470.087,2019-12-02T10:37:31Z
2019-12-02T08:40:05Z,42.805,6.029,13.2993,4.59986,2470.063,2019-12-02T10:40:34Z
2019-12-02T08:43:08Z,42.805,6.029,13.2986,4.59986,2470.087,2019-12-02T10:43:37Z
2019-12-02T08:46:11Z,42.805,6.029,13.2994,4.59988,2470.087,2019-12-02T10:46:40Z
2019-12-02T08:49:14Z,42.805,6.029,13.2977,4.59997,2470.1,2019-12-02T10:49:43Z
2019-12-02T08:52:18Z,42.805,6.029,13.2986,4.59994,2470.11,2019-12-02T10:52:47Z
2019-12-02T08:55:21Z,42.805,6.029,13.2985,4.59989,2470.087,2019-12-02T10:55:50Z
2019-12-02T08:58:24Z,42.805,6.029,13.2983,4.59979,2470.124,2019-12-02T10:58:53Z
2019-12-02T09:01:27Z,42.805,6.029,13.2979,4.59985,2470.124,2019-12-02T11:01:56Z
2019-12-02T09:04:30Z,42.805,6.029,13.2982,4.59976,2470.087,2019-12-02T11:04:59Z
2019-12-02T09:07:33Z,42.805,6.029,13.2977,4.59976,2470.11,2019-12-02T11:08:03Z
2019-12-02T09:10:37Z,42.805,6.029,13.2986,4.59992,2470.087,2019-12-02T11:11:06Z
2019-12-02T09:13:40Z,42.805,6.029,13.2980,4.59985,2470.124,2019-12-02T11:14:09Z
2019-12-02T09:16:43Z,42.805,6.029,13.2974,4.59975,2470.1,2019-12-02T11:17:12Z
2019-12-02T09:19:46Z,42.805,6.029,13.2982,4.59981,2470.133,2019-12-02T11:20:15Z
2019-12-02T09:22:49Z,42.805,6.029,13.2982,4.59990,2470.11,2019-12-02T11:23:19Z
2019-12-02T09:25:53Z,42.805,6.029,13.2974,4.59986,2470.171,2019-12-02T11:26:22Z
2019-12-02T09:28:56Z,42.805,6.029,13.2992,4.59981,2470.147,2019-12-02T11:29:25Z
2019-12-02T09:31:59Z,42.805,6.029,13.2983,4.59974,2470.133,2019-12-02T11:32:28Z
2019-12-02T09:35:02Z,42.805,6.029,13.2981,4.59979,2470.133,2019-12-02T11:35:31Z
2019-12-02T09:38:05Z,42.805,6.029,13.2976,4.59981,2470.156,2019-12-02T11:38:35Z
2019-12-02T09:41:09Z,42.805,6.029,13.2983,4.59978,2470.156,2019-12-02T11:41:38Z
2019-12-02T09:44:12Z,42.805,6.029,13.2982,4.59976,2470.11,2019-12-02T11:44:41Z
2019-12-02T09:47:15Z,42.805,6.029,13.2979,4.59976,2470.171,2019-12-02T11:47:44Z
2019-12-02T09:50:18Z,42.805,6.029,13.2976,4.59978,2470.143,2019-12-02T11:50:47Z
2019-12-02T09:53:21Z,42.805,6.029,13.2979,4.59980,2470.171,2019-12-02T11:53:51Z
2019-12-02T09:56:25Z,42.805,6.029,13.2983,4.59985,2470.171,2019-12-02T11:56:54Z
2019-12-02T09:59:28Z,42.805,6.029,13.2974,4.59983,2470.194,2019-12-02T11:59:57Z
2019-12-02T10:02:31Z,42.805,6.029,13.2979,4.59984,2470.156,2019-12-02T12:03:00Z
2019-12-02T10:05:34Z,42.805,6.029,13.2974,4.59978,2470.156,2019-12-02T12:06:03Z
2019-12-02T10:08:37Z,42.805,6.029,13.2974,4.59989,2470.194,2019-12-02T12:09:06Z
2019-12-02T10:11:41Z,42.805,6.029,13.2977,4.59978,2470.156,2019-12-02T12:12:10Z
2019-12-02T10:14:44Z,42.805,6.029,13.2983,4.59981,2470.147,2019-12-02T12:15:13Z
2019-12-02T10:17:47Z,42.805,6.029,13.2977,4.59982,2470.156,2019-12-02T12:18:16Z
2019-12-02T10:20:50Z,42.805,6.029,13.2980,4.59989,2470.156,2019-12-02T12:21:19Z
2019-12-02T10:23:53Z,42.805,6.029,13.2975,4.59975,2470.194,2019-12-02T12:24:22Z
2019-12-02T10:26:57Z,42.805,6.029,13.2979,4.59979,2470.156,2019-12-02T12:27:26Z
2019-12-02T10:30:00Z,42.805,6.029,13.2981,4.59984,2470.171,2019-12-02T12:30:29Z
2019-12-02T10:33:03Z,42.805,6.029,13.2976,4.59990,2470.18,2019-12-02T12:33:32Z
2019-12-02T10:36:06Z,42.805,6.029,13.2987,4.59981,2470.156,2019-12-02T12:36:35Z
2019-12-02T10:39:09Z,42.805,6.029,13.2974,4.59981,2470.171,2019-12-02T12:39:38Z
2019-12-02T10:42:13Z,42.805,6.029,13.2979,4.59984,2470.156,2019-12-02T12:42:42Z
2019-12-02T10:45:16Z,42.805,6.029,13.2993,4.59974,2470.203,2019-12-02T12:45:45Z
2019-12-02T10:48:19Z,42.805,6.029,13.2973,4.59975,2470.171,2019-12-02T12:48:48Z
2019-12-02T10:51:22Z,42.805,6.029,13.2976,4.59997,2470.18,2019-12-02T12:51:51Z
2019-12-02T10:54:25Z,42.805,6.029,13.2974,4.59991,2470.171,2019-12-02T12:54:55Z
2019-12-02T10:57:29Z,42.805,6.029,13.2977,4.59993,2470.194,2019-12-02T12:57:58Z
2019-12-02T11:00:32Z,42.805,6.029,13.2976,4.59979,2470.194,2019-12-02T13:01:01Z
2019-12-02T11:03:35Z,42.805,6.029,13.2978,4.59990,2470.194,2019-12-02T13:04:04Z
2019-12-02T11:06:38Z,42.805,6.029,13.2986,4.59975,2470.194,2019-12-02T13:07:07Z
2019-12-02T11:09:41Z,42.805,6.029,13.2976,4.59981,2470.156,2019-12-02T13:10:10Z
2019-12-02T11:12:45Z,42.805,6.029,13.2985,4.59977,2470.166,2019-12-02T13:13:14Z
2019-12-02T11:15:48Z,42.805,6.029,13.2986,4.59976,2470.156,2019-12-02T13:16:17Z
2019-12-02T11:18:51Z,42.805,6.029,13.2975,4.59981,2470.156,2019-12-02T13:19:20Z
2019-12-02T11:21:54Z,42.805,6.029,13.2976,4.60025,2470.171,2019-12-02T13:22:23Z
2019-12-02T11:24:57Z,42.805,6.029,13.2983,4.59989,2470.156,2019-12-02T13:25:27Z
2019-12-02T11:28:01Z,42.805,6.029,13.2989,4.59981,2470.156,2019-12-02T13:28:30Z
2019-12-02T11:31:04Z,42.805,6.029,13.2973,4.59987,2470.147,2019-12-02T13:31:33Z
2019-12-02T11:34:07Z,42.805,6.029,13.2985,4.59983,2470.156,2019-12-02T13:34:36Z
2019-12-02T11:37:10Z,42.805,6.029,13.2978,4.59981,2470.156,2019-12-02T13:37:39Z
2019-12-02T11:40:13Z,42.805,6.029,13.2982,4.59981,2470.203,2019-12-02T13:40:43Z
2019-12-02T11:43:17Z,42.805,6.029,13.2976,4.59988,2470.18,2019-12-02T13:43:46Z
2019-12-02T11:46:20Z,42.805,6.029,13.2978,4.59991,2470.156,2019-12-02T13:46:49Z
2019-12-02T11:49:23Z,42.805,6.029,13.3000,4.59980,2470.171,2019-12-02T13:49:52Z
2019-12-02T11:52:27Z,42.805,6.029,13.2972,4.59990,2470.194,2019-12-02T13:52:56Z
2019-12-02T11:55:30Z,42.805,6.029,13.2978,4.59979,2470.18,2019-12-02T13:55:59Z
2019-12-02T11:58:33Z,42.805,6.029,13.2977,4.59986,2470.156,2019-12-02T13:59:02Z
2019-12-02T12:01:36Z,42.805,6.029,13.2976,4.59978,2470.147,2019-12-02T14:02:05Z
2019-12-02T12:04:39Z,42.805,6.029,13.2973,4.59985,2470.171,2019-12-02T14:05:08Z
2019-12-02T12:07:42Z,42.805,6.029,13.2973,4.59981,2470.171,2019-12-02T14:08:12Z
2019-12-02T12:10:46Z,42.805,6.029,13.2987,4.59976,2470.171,2019-12-02T14:11:15Z
2019-12-02T12:13:49Z,42.805,6.029,13.2981,4.59978,2470.156,2019-12-02T14:14:18Z
2019-12-02T12:16:52Z,42.805,6.029,13.2976,4.59985,2470.133,2019-12-02T14:17:21Z
2019-12-02T12:19:55Z,42.805,6.029,13.2977,4.59991,2470.156,2019-12-02T14:20:24Z
2019-12-02T12:22:58Z,42.805,6.029,13.2975,4.59985,2470.133,2019-12-02T14:23:27Z
2019-12-02T12:26:02Z,42.805,6.029,13.2976,4.59986,2470.156,2019-12-02T14:26:31Z
2019-12-02T12:29:05Z,42.805,6.029,13.2982,4.59990,2470.171,2019-12-02T14:29:34Z
2019-12-02T12:32:08Z,42.805,6.029,13.2982,4.59978,2470.133,2019-12-02T14:32:37Z
2019-12-02T12:35:11Z,42.805,6.029,13.2986,4.59981,2470.171,2019-12-02T14:35:40Z
2019-12-02T12:38:14Z,42.805,6.029,13.2976,4.59983,2470.11,2019-12-02T14:38:43Z
2019-12-02T12:41:18Z,42.805,6.029,13.2977,4.59994,2470.147,2019-12-02T14:41:47Z
2019-12-02T12:44:21Z,42.805,6.029,13.2979,4.59979,2470.11,2019-12-02T14:44:50Z
2019-12-02T12:47:24Z,42.805,6.029,13.2983,4.59986,2470.133,2019-12-02T14:47:53Z
2019-12-02T12:50:27Z,42.805,6.029,13.2974,4.59980,2470.124,2019-12-02T14:50:57Z
2019-12-02T12:53:31Z,42.805,6.029,13.2974,4.59975,2470.133,2019-12-02T14:54:00Z
2019-12-02T12:56:34Z,42.805,6.029,13.2974,4.59983,2470.133,2019-12-02T14:57:03Z
2019-12-02T12:59:37Z,42.805,6.029,13.2979,4.59973,2470.147,2019-12-02T15:00:06Z
2019-12-02T13:02:40Z,42.805,6.029,13.2988,4.59984,2470.133,2019-12-02T15:03:09Z
2019-12-02T13:05:44Z,42.805,6.029,13.2982,4.59986,2470.124,2019-12-02T15:06:13Z
2019-12-02T13:08:47Z,42.805,6.029,13.2981,4.59976,2470.133,2019-12-02T15:09:16Z
2019-12-02T13:11:50Z,42.805,6.029,13.2983,4.59976,2470.156,2019-12-02T15:12:19Z
2019-12-02T13:14:53Z,42.805,6.029,13.2977,4.59984,2470.147,2019-12-02T15:15:22Z
2019-12-02T13:17:56Z,42.805,6.029,13.2982,4.59983,2470.124,2019-12-02T15:18:25Z
2019-12-02T13:20:59Z,42.805,6.029,13.2981,4.59981,2470.133,2019-12-02T15:21:29Z
2019-12-02T13:24:03Z,42.805,6.029,13.2968,4.59986,2470.11,2019-12-02T15:24:32Z
2019-12-02T13:27:06Z,42.805,6.029,13.2971,4.59984,2470.147,2019-12-02T15:27:35Z
2019-12-02T13:30:09Z,42.805,6.029,13.2976,4.59993,2470.133,2019-12-02T15:30:38Z
2019-12-02T13:33:12Z,42.805,6.029,13.2977,4.60002,2470.147,2019-12-02T15:33:41Z
2019-12-02T13:36:15Z,42.805,6.029,13.2978,4.59992,2470.087,2019-12-02T15:36:45Z
2019-12-02T13:39:19Z,42.805,6.029,13.2977,4.59980,2470.11,2019-12-02T15:39:48Z
2019-12-02T13:42:22Z,42.805,6.029,13.2977,4.59972,2470.124,2019-12-02T15:42:51Z
2019-12-02T13:45:25Z,42.805,6.029,13.2985,4.59979,2470.124,2019-12-02T15:45:54Z
2019-12-02T13:48:28Z,42.805,6.029,13.2980,4.59991,2470.147,2019-12-02T15:48:57Z
2019-12-02T13:51:31Z,42.805,6.029,13.2974,4.59988,2470.087,2019-12-02T15:52:01Z
2019-12-02T13:54:35Z,42.805,6.029,13.2984,4.59984,2470.087,2019-12-02T15:55:04Z
2019-12-02T13:57:38Z,42.805,6.029,13.2973,4.59983,2470.087,2019-12-02T15:58:07Z
2019-12-02T14:00:41Z,42.805,6.029,13.2988,4.59990,2470.147,2019-12-02T16:01:10Z
2019-12-02T14:03:44Z,42.805,6.029,13.2989,4.59984,2470.147,2019-12-02T16:04:13Z
2019-12-02T14:06:47Z,42.805,6.029,13.2979,4.59983,2470.1,2019-12-02T16:07:16Z
2019-12-02T14:09:51Z,42.805,6.029,13.2978,4.59983,2470.133,2019-12-02T16:10:20Z
2019-12-02T14:12:54Z,42.805,6.029,13.2976,4.59984,2470.11,2019-12-02T16:13:23Z
2019-12-02T14:15:57Z,42.805,6.029,13.2993,4.59985,2470.147,2019-12-02T16:16:26Z
2019-12-02T14:19:00Z,42.805,6.029,13.2984,4.59983,2470.1,2019-12-02T16:19:29Z
2019-12-02T14:22:03Z,42.805,6.029,13.2979,4.59988,2470.087,2019-12-02T16:22:32Z
2019-12-02T14:25:06Z,42.805,6.029,13.2974,4.59986,2470.1,2019-12-02T16:25:36Z
2019-12-02T14:28:10Z,42.805,6.029,13.2977,4.59990,2470.124,2019-12-02T16:28:39Z
2019-12-02T14:31:13Z,42.805,6.029,13.2980,4.59986,2470.124,2019-12-02T16:31:42Z
2019-12-02T14:34:16Z,42.805,6.029,13.2983,4.59980,2470.087,2019-12-02T16:34:45Z
2019-12-02T14:37:19Z,42.805,6.029,13.2983,4.59987,2470.087,2019-12-02T16:37:48Z
2019-12-02T14:40:23Z,42.805,6.029,13.2972,4.60001,2470.11,2019-12-02T16:40:52Z
2019-12-02T14:43:26Z,42.805,6.029,13.2979,4.59984,2470.063,2019-12-02T16:43:55Z
2019-12-02T14:46:29Z,42.805,6.029,13.2974,4.59981,2470.087,2019-12-02T16:46:58Z
2019-12-02T14:49:32Z,42.805,6.029,13.2983,4.59986,2470.1,2019-12-02T16:50:01Z
2019-12-02T14:52:35Z,42.805,6.029,13.2976,4.59985,2470.1,2019-12-02T16:53:04Z
2019-12-02T14:55:39Z,42.805,6.029,13.2987,4.59977,2470.087,2019-12-02T16:56:08Z
2019-12-02T14:58:42Z,42.805,6.029,13.2979,4.59982,2470.11,2019-12-02T16:59:11Z
2019-12-02T15:01:45Z,42.805,6.029,13.2992,4.59984,2470.11,2019-12-02T17:02:14Z